Location: Vancouver
(49.2500°N, 123.1330°W)
Time: 01:47:13
(UTC-08:00)

S-56A Canister/Altair - Visible Passes

Search period start: 09 February 2016 00:00
Search period end: 19 February 2016 00:00
Orbit: 639 x 2496 km, 38.9° (Epoch: 07 February)

Date Brightness Start Highest point End Pass type
(mag) Time Alt. Az. Time Alt. Az. Time Alt. Az.
09 Feb 10.0 18:37:19 10° WSW 18:46:42 50° S 18:58:36 13° ESE visible
09 Feb 10.4 20:41:08 10° W 20:51:37 40° SSW 20:56:03 33° SSE visible
09 Feb 11.2 22:47:17 10° W 22:53:31 20° SW 22:53:31 20° SW visible
10 Feb 10.0 18:05:10 10° WSW 18:13:57 49° S 18:26:30 10° ESE visible
10 Feb 10.3 20:08:43 10° W 20:18:46 41° SSW 20:25:40 26° SSE visible
10 Feb 11.0 22:14:17 10° W 22:23:08 23° SW 22:23:08 23° SW visible
11 Feb 10.3 19:36:22 10° W 19:45:56 42° SSW 19:55:21 19° SE visible
11 Feb 10.9 21:41:27 10° W 21:50:29 24° SW 21:52:50 23° SSW visible
12 Feb 10.2 19:04:06 10° W 19:13:10 43° SSW 19:25:08 11° SE visible
12 Feb 10.9 21:08:46 10° W 21:17:42 26° SSW 21:22:38 21° S visible
13 Feb 10.1 18:31:54 10° WSW 18:40:27 43° SSW 18:52:27 10° SE visible
13 Feb 10.8 20:36:13 10° W 20:44:57 27° SSW 20:52:32 17° S visible
14 Feb 10.1 17:59:45 10° WSW 18:07:49 43° S 18:19:17 10° SE visible
14 Feb 10.7 20:03:45 10° W 20:12:14 29° SSW 20:22:35 11° SSE visible
14 Feb 11.5 22:13:38 10° WSW 22:16:10 11° SW 22:18:50 10° SW visible
15 Feb 10.7 19:31:23 10° W 19:39:33 30° SSW 19:50:12 10° SSE visible
15 Feb 11.5 21:39:26 10° WSW 21:43:33 12° SW 21:47:59 10° SSW visible
16 Feb 10.6 18:59:06 10° W 19:06:53 31° SSW 19:17:19 10° SSE visible
16 Feb 11.4 21:06:03 10° WSW 21:10:56 14° SW 21:16:23 10° SSW visible
17 Feb 10.5 18:26:53 10° WSW 18:34:17 31° SSW 18:44:23 10° SE visible
17 Feb 11.3 20:33:02 10° WSW 20:38:20 15° SW 20:44:24 10° S visible
18 Feb 10.5 17:54:44 10° WSW 18:01:44 32° SSW 18:11:25 10° SE visible
18 Feb 11.3 20:00:15 10° WSW 20:05:45 16° SW 20:12:12 10° S visible
